Thalassa — FNFP — position and weather

sailwx.info

Track history (hours):
 
Tides and Currents Weather Stations Pressure Air Temp Water Temp Dewpoint Dewpoint Depression Visibility Wind Speed Wind Dir Waves Ship Positions

Oceanographic research ship Thalassa (France & Spain)

Detailed information on ship capabilities available from University of Delaware's Ocean Information Center.

Last reported at 2014-Nov-25 20:07 UTC. Time now 2014-Nov-28 17:01 UTC.
Position N 51°46' W 006°32'.

Length 74 m; beam 15 m.

Type: . MMSI: 227297000.

Date/timePositionNaut miles runAvg speedWind from/ knotsBaromVisibWave heightAir tempDewpointWater temp
2014-Nov-25 20:07N 51°46' W 006°32'3 0.6
2014-Nov-25 15:15N 51°48' W 006°35'4 5.3
2014-Nov-25 14:28N 51°47' W 006°42'5 5.3
2014-Nov-25 13:30N 51°45' W 006°49'1111.1
2014-Nov-25 12:28N 51°42' W 007°06'1011.4
2014-Nov-25 11:33N 51°39' W 007°23'4 4.0
2014-Nov-25 10:33N 51°37' W 007°28'1111.2
2014-Nov-25 09:33N 51°40' W 007°45'9 9.1
2014-Nov-25 08:34N 51°43' W 007°59'3 3.1
2014-Nov-25 07:34N 51°41' W 008°03'3 2.6
2014-Nov-25 06:34N 51°43' W 007°60'2 1.7
2014-Nov-25 05:33N 51°44' W 007°58'1 1.2
2014-Nov-25 04:34N 51°43' W 007°59'1 1.1
2014-Nov-25 03:33N 51°42' W 008°00'3 2.9
2014-Nov-25 02:34N 51°40' W 008°03'3 3.4
2014-Nov-25 01:34N 51°37' W 008°06'3 3.2
2014-Nov-25 00:34N 51°34' W 008°09'4 4.0
2014-Nov-24 23:34N 51°31' W 008°13'5 4.9
2014-Nov-24 22:34N 51°27' W 008°17'6 5.6
2014-Nov-24 21:34N 51°23' W 008°22'6 5.8
2014-Nov-24 20:33N 51°18' W 008°28'6 5.4
2014-Nov-24 19:32N 51°13' W 008°33'1 1.3
2014-Nov-24 18:33N 51°12' W 008°32'1 0.6
2014-Nov-24 17:30N 51°13' W 008°31'1 0.5
2014-Nov-24 16:27N 51°13' W 008°31'2 1.9
2014-Nov-24 15:32N 51°12' W 008°33'8 8.2
2014-Nov-24 14:32N 51°09' W 008°45'7 6.8
2014-Nov-24 13:33N 51°07' W 008°56'5 5.2
2014-Nov-24 12:33N 51°09' W 009°03'1111.5
2014-Nov-24 11:34N 51°08' W 009°21'4 4.5
2014-Nov-24 10:34N 51°09' W 009°28'8 7.5
2014-Nov-24 09:33N 51°09' W 009°40'8 8.1
2014-Nov-24 08:33N 51°09' W 009°53'3 2.9
2014-Nov-24 07:34N 51°10' W 009°57'2 1.9
2014-Nov-24 06:34N 51°09' W 009°54'1 1.1
2014-Nov-24 05:21N 51°10' W 009°53'2 2.7
2014-Nov-24 04:27N 51°11' W 009°49'1 0.9
2014-Nov-24 03:34N 51°10' W 009°50'1 1.3
2014-Nov-24 02:34N 51°10' W 009°52'1 1.3
2014-Nov-24 01:34N 51°09' W 009°54'1 1.0
2014-Nov-24 00:34N 51°08' W 009°55'1 0.6
2014-Nov-23 23:28N 51°08' W 009°55'1 1.4
2014-Nov-23 22:33N 51°09' W 009°55'1 1.2
2014-Nov-23 21:34N 51°10' W 009°55'1 0.7
2014-Nov-23 20:32N 51°10' W 009°56'1 0.6
2014-Nov-23 19:34N 51°09' W 009°56'11 9.7
2014-Nov-23 18:23N 51°03' W 009°41'2 1.8
2014-Nov-23 17:32N 51°02' W 009°39'0 0.5
2014-Nov-23 16:34N 51°02' W 009°38'0 0.4
2014-Nov-23 15:34N 51°02' W 009°38'1 0.5
2014-Nov-23 14:33N 51°02' W 009°38'6 5.2
2014-Nov-23 13:30N 50°57' W 009°36'42 1.1
2014-Nov-21 21:30N 50°18' W 010°03'6 3.3
2014-Nov-21 19:31N 50°24' W 010°01'  
2014-Nov-17 20:11N 48°16' W 005°09'6 8.8
2014-Nov-17 19:33N 48°16' W 005°01'9 9.1
2014-Nov-17 18:33N 48°17' W 004°48'1111.1
2014-Nov-17 17:33N 48°21' W 004°32'3 2.6
2014-Nov-17 16:31N 48°23' W 004°29'0 0.0
2014-Nov-17 15:31N 48°23' W 004°29'0 0.0
2014-Nov-17 14:31N 48°23' W 004°29'0 0.0
2014-Nov-17 13:31N 48°23' W 004°29'0 0.0
2014-Nov-17 12:31N 48°23' W 004°29'0 0.0
2014-Nov-17 11:31N 48°23' W 004°29'0 0.0
2014-Nov-17 10:31N 48°23' W 004°29'0 0.0
2014-Nov-17 09:31N 48°23' W 004°29'0 0.0
2014-Nov-17 08:31N 48°23' W 004°29'0 0.0
2014-Nov-17 07:31N 48°23' W 004°29'0 0.0
2014-Nov-17 06:31N 48°23' W 004°29'0 0.0
2014-Nov-17 05:31N 48°23' W 004°29'0 0.0
2014-Nov-17 04:31N 48°23' W 004°29'0 0.0
2014-Nov-17 03:31N 48°23' W 004°29'0 0.0
2014-Nov-17 02:31N 48°23' W 004°29'0 0.0
2014-Nov-17 01:31N 48°23' W 004°29'0 0.0
2014-Nov-17 00:31N 48°23' W 004°29'0 0.0
2014-Nov-16 23:31N 48°23' W 004°29'0 0.0
2014-Nov-16 22:31N 48°23' W 004°29'0 0.0
2014-Nov-16 21:28N 48°23' W 004°29'0 0.0
2014-Nov-16 20:31N 48°23' W 004°29'0 0.0
2014-Nov-16 19:31N 48°23' W 004°29'0 0.0
2014-Nov-16 18:31N 48°23' W 004°29'0 0.0
2014-Nov-16 17:31N 48°23' W 004°29'0 0.0
2014-Nov-16 16:31N 48°23' W 004°29'0 0.0
2014-Nov-16 15:33N 48°23' W 004°29'6 5.8
2014-Nov-16 14:33N 48°20' W 004°36'1211.6
2014-Nov-16 13:33N 48°16' W 004°53'1312.6
2014-Nov-16 12:33N 48°18' W 005°12'  
Track history (hours):
 
Tides and Currents Weather Stations Pressure Air Temp Water Temp Dewpoint Dewpoint Depression Visibility Wind Speed Wind Dir Waves Ship Positions

Oceanographic research ship Thalassa (France & Spain)

Detailed information on ship capabilities available from University of Delaware's Ocean Information Center.

Last reported at 2014-Nov-25 20:07 UTC. Time now 2014-Nov-28 17:01 UTC.
Position N 51°46' W 006°32'.

Length 74 m; beam 15 m.

Type: . MMSI: 227297000.

Date/timePositionNaut miles runAvg speedWind from/ knotsBaromVisibWave heightAir tempDewpointWater temp
2014-Nov-25 20:07N 51°46' W 006°32'3 0.6
2014-Nov-25 15:15N 51°48' W 006°35'4 5.3
2014-Nov-25 14:28N 51°47' W 006°42'5 5.3
2014-Nov-25 13:30N 51°45' W 006°49'1111.1
2014-Nov-25 12:28N 51°42' W 007°06'1011.4
2014-Nov-25 11:33N 51°39' W 007°23'4 4.0
2014-Nov-25 10:33N 51°37' W 007°28'1111.2
2014-Nov-25 09:33N 51°40' W 007°45'9 9.1
2014-Nov-25 08:34N 51°43' W 007°59'3 3.1
2014-Nov-25 07:34N 51°41' W 008°03'3 2.6
2014-Nov-25 06:34N 51°43' W 007°60'2 1.7
2014-Nov-25 05:33N 51°44' W 007°58'1 1.2
2014-Nov-25 04:34N 51°43' W 007°59'1 1.1
2014-Nov-25 03:33N 51°42' W 008°00'3 2.9
2014-Nov-25 02:34N 51°40' W 008°03'3 3.4
2014-Nov-25 01:34N 51°37' W 008°06'3 3.2
2014-Nov-25 00:34N 51°34' W 008°09'4 4.0
2014-Nov-24 23:34N 51°31' W 008°13'5 4.9
2014-Nov-24 22:34N 51°27' W 008°17'6 5.6
2014-Nov-24 21:34N 51°23' W 008°22'6 5.8
2014-Nov-24 20:33N 51°18' W 008°28'6 5.4
2014-Nov-24 19:32N 51°13' W 008°33'1 1.3
2014-Nov-24 18:33N 51°12' W 008°32'1 0.6
2014-Nov-24 17:30N 51°13' W 008°31'1 0.5
2014-Nov-24 16:27N 51°13' W 008°31'2 1.9
2014-Nov-24 15:32N 51°12' W 008°33'8 8.2
2014-Nov-24 14:32N 51°09' W 008°45'7 6.8
2014-Nov-24 13:33N 51°07' W 008°56'5 5.2
2014-Nov-24 12:33N 51°09' W 009°03'1111.5
2014-Nov-24 11:34N 51°08' W 009°21'4 4.5
2014-Nov-24 10:34N 51°09' W 009°28'8 7.5
2014-Nov-24 09:33N 51°09' W 009°40'8 8.1
2014-Nov-24 08:33N 51°09' W 009°53'3 2.9
2014-Nov-24 07:34N 51°10' W 009°57'2 1.9
2014-Nov-24 06:34N 51°09' W 009°54'1 1.1
2014-Nov-24 05:21N 51°10' W 009°53'2 2.7
2014-Nov-24 04:27N 51°11' W 009°49'1 0.9
2014-Nov-24 03:34N 51°10' W 009°50'1 1.3
2014-Nov-24 02:34N 51°10' W 009°52'1 1.3
2014-Nov-24 01:34N 51°09' W 009°54'1 1.0
2014-Nov-24 00:34N 51°08' W 009°55'1 0.6
2014-Nov-23 23:28N 51°08' W 009°55'1 1.4
2014-Nov-23 22:33N 51°09' W 009°55'1 1.2
2014-Nov-23 21:34N 51°10' W 009°55'1 0.7
2014-Nov-23 20:32N 51°10' W 009°56'1 0.6
2014-Nov-23 19:34N 51°09' W 009°56'11 9.7
2014-Nov-23 18:23N 51°03' W 009°41'2 1.8
2014-Nov-23 17:32N 51°02' W 009°39'0 0.5
2014-Nov-23 16:34N 51°02' W 009°38'0 0.4
2014-Nov-23 15:34N 51°02' W 009°38'1 0.5
2014-Nov-23 14:33N 51°02' W 009°38'6 5.2
2014-Nov-23 13:30N 50°57' W 009°36'42 1.1
2014-Nov-21 21:30N 50°18' W 010°03'6 3.3
2014-Nov-21 19:31N 50°24' W 010°01'  
2014-Nov-17 20:11N 48°16' W 005°09'6 8.8
2014-Nov-17 19:33N 48°16' W 005°01'9 9.1
2014-Nov-17 18:33N 48°17' W 004°48'1111.1
2014-Nov-17 17:33N 48°21' W 004°32'3 2.6
2014-Nov-17 16:31N 48°23' W 004°29'0 0.0
2014-Nov-17 15:31N 48°23' W 004°29'0 0.0
2014-Nov-17 14:31N 48°23' W 004°29'0 0.0
2014-Nov-17 13:31N 48°23' W 004°29'0 0.0
2014-Nov-17 12:31N 48°23' W 004°29'0 0.0
2014-Nov-17 11:31N 48°23' W 004°29'0 0.0
2014-Nov-17 10:31N 48°23' W 004°29'0 0.0
2014-Nov-17 09:31N 48°23' W 004°29'0 0.0
2014-Nov-17 08:31N 48°23' W 004°29'0 0.0
2014-Nov-17 07:31N 48°23' W 004°29'0 0.0
2014-Nov-17 06:31N 48°23' W 004°29'0 0.0
2014-Nov-17 05:31N 48°23' W 004°29'0 0.0
2014-Nov-17 04:31N 48°23' W 004°29'0 0.0
2014-Nov-17 03:31N 48°23' W 004°29'0 0.0
2014-Nov-17 02:31N 48°23' W 004°29'0 0.0
2014-Nov-17 01:31N 48°23' W 004°29'0 0.0
2014-Nov-17 00:31N 48°23' W 004°29'0 0.0
2014-Nov-16 23:31N 48°23' W 004°29'0 0.0
2014-Nov-16 22:31N 48°23' W 004°29'0 0.0
2014-Nov-16 21:28N 48°23' W 004°29'0 0.0
2014-Nov-16 20:31N 48°23' W 004°29'0 0.0
2014-Nov-16 19:31N 48°23' W 004°29'0 0.0
2014-Nov-16 18:31N 48°23' W 004°29'0 0.0
2014-Nov-16 17:31N 48°23' W 004°29'0 0.0
2014-Nov-16 16:31N 48°23' W 004°29'0 0.0
2014-Nov-16 15:33N 48°23' W 004°29'6 5.8
2014-Nov-16 14:33N 48°20' W 004°36'1211.6
2014-Nov-16 13:33N 48°16' W 004°53'1312.6
2014-Nov-16 12:33N 48°18' W 005°12'  

Dump ship's entire track history